Погода Актобе

Погода Актобе : погода сейчас, прогноз погоды и архив. Всё, что Вы хотите узнать о погоде Актобе!

Хотите узнать прогноз погоды Актобе? Тогда Вам сюда: Погода Актобе

Поиск расширенной информации на нашем сайте:

Другие новости

Новости СМИ2

Главная страница сайта

Новости сайта

02.10.2013

Напоминаем, что на нашем новом сайте вы можете получить высокодетализированные прогнозы погоды по пунктам России, СНГ и мира (включающие важные для авиации метеовеличины, такие как направление и скорость ветра, видимость, явления погоды, количество и форма облачности, нижняя и верхняя граница облачности), а также ознакомиться с разнообразными материалами по авиационной метеорологии и подборкой полезных ссылок на эту тему.

Сайт Метеоцентр.Азия посвящён разработке технологий оптимизации авиаметеорологического обслуживания, включая проектирование и перспективное создание нескольких автоматизированных авиаметеорологических систем:
- система выпуска высокодетальных прогностических карт явлений погоды для нижнего воздушного пространства по России и ближнему зарубежью;
- система верификации прогнозов TAF (выпускаемых синоптиками официальных АМСГ РФ и ближнего зарубежья) и AUTOTAF (выпускаемых сайтом Метеоцентр.Азия) - выявление ошибок, онлайн-сопоставление с фактической погодой METAR, автоматическое внесение коррективов в прогнозы при резком отклонении фактической погоды от прогноза, подсчёт оправдываемости прогнозов по элементам и в целом;
- система обработки, анализа и отображения авиаметеорологической информации для применения провайдерами метеорологической информации.

Рекомендуем: Самая актуальная информация мелекино тут.

Погода Актобе - сегодня

Время (UTC), дата Ветер
(°,м/с) 
Видим.   Явления Облачность Т
(°С)
Тd
(°С)
f(%) Тe
(°С)
Pmin
(гПа)
dP
(гПа)
Po
(мм)
O2
(г/м3)
Тmin Tmax R s Состояние
почвы
03 20.06.17 240 (ЮЗ) 20000 м    ясно 
+17.9 +10.3 61 +21  1005.7  0.3  735  276           
06 20.06.17 290 (З) 20000 м    8/1 1000 м верхняя 
[Cu hum|Ci]
+23.7 +8.5 38 +24  1005.1  -0.1  735  271  +13.6         
09 20.06.17 280 (З) 20000 м    4/4 1000 м кучево-дожд. 
[Cb calv]
+25.8 +7.5 31 +26  1004.2  -0.7  735  269           
12 20.06.17 240 (ЮЗ) 20000 м    5/5 1500 м 
[Cu med, cong]
+27.1 +6.1 26 +27  1002.6  -1.5  734  268           
15 20.06.17 270 (З) 20000 м    9/3 600 м кучево-дожд., средняя 
[Cb calv|Ac As]
+25.3 +8.1 33 +25  1002.3  -0.4  733  269    +27.9       
18 20.06.17 330 (СЗ) н/о    9/3 600 м кучево-дожд., средняя 
[Cb calv|Ac As]
+20.4 +11.7 57 +24  1003.9  1.2  734  273    +27.9       
21 20.06.17 тихо ()   н/о    8/0 средняя 
[Ac As]
+17.3 +11.1 67 +20  1004.2  734  276           
00 21.06.17 тихо ()   н/о    8/0 средняя 
[Ac As]
+14.8 +11.1 78 +18  1004.9  0.5  735  279           
03 21.06.17 290 (З) 20000 м    5/0 средняя 
[Ac trans]
+17.4 +11.6 69 +22  1005.9  1.2  735  276           
06 21.06.17 310 (СЗ) 20000 м    ясно 
+21.9 +7.4 39 +22  1005.6  735  273  +14.5         
09 21.06.17 300 (СЗ) 20000 м    ясно 
+25.5 +4.7 26 +26  1004.9  -0.4  735  270           
12 21.06.17 280 (З) 20000 м    ясно 
+26.7 +6 27 +27  1004  -0.7  735  269           
15 21.06.17 330 (СЗ) 20000 м    1/0 верхняя 
[Ci fib]
+25.7 +4.1 25 +26  1004.3  0.2  735  270    +27.5       
18 21.06.17 060 (СВ) н/о    ясно 
+17.9 +9.4 57 +20  1005.4  0.4  735  276    +27.5       
21 21.06.17 050 (СВ) н/о    ясно 
+14.1 +6.8 61 +15  1006.3  0.6  736  281           
00 22.06.17 тихо ()   10 км    1/0 средняя 
[Ac cast]
+12 +7.1 72 +12  1006.3  -0.2  735  283           
03 22.06.17 тихо ()   20000 м    3/1 1500 м верхняя 
[Cu hum|Ci fib]
+19.3 +8.9 51 +19  1005.8  0.2  736  275           
06 22.06.17 120 (ЮВ) 20000 м    1/0 верхняя 
[Ci fib]
+27.3 +7.5 29 +27  1004.1  -1.1  735  268  +10.5         
09 22.06.17 120 (ЮВ) 20000 м    3/3 1500 м 
[Cu med, cong]
+30.2 +9.4 27 +31  1002.9  -0.9  734  265           
12 22.06.17 140 (ЮВ) 20000 м  в посл. час ливневой дождь  6/6 600 м кучево-дожд. 
[Cb calv]
+31 +10.7 29 +34  1001.6  -1.2  733  263           
18 22.06.17 160 (Ю) н/о    8/8 600 м кучево-дожд. 
[Cb calv]
+23.2 +11.8 49 +27  1003.4  1.2  734  270    +32.5  0.0     
21 22.06.17 140 (ЮВ) н/о    9/4 600 м кучево-дожд., средняя 
[Cb calv|Ac As]
+21 +13 60 +27  1003.8  0.3  734  272           
00 23.06.17 240 (ЮЗ) 10 км    8/3 600 м кучево-дожд., средняя 
[Cb calv|Ac As]
+18.2 +11.9 67 +24  1004  -0.1  734  275           
03 23.06.17 тихо ()   20000 м    8/3 600 м кучево-дожд., средняя 
[Cb calv|Ac As]
+20.7 +13.3 63 +27  1004.1  0.4  734  272           
06 23.06.17 330 (СЗ) 20000 м    10/5 600 м кучево-дожд., средняя 
[Cb calv|Ac As]
+22.1 +14.5 62 +30  1004.9  0.9  735  271  +18.1         
Время (UTC), дата Ветер
(°,м/с) 
Видим.   Явления Облачность Т
(°С)
Тd
(°С)
f(%) Тe
(°С)
Pmin
(гПа)
dP
(гПа)
Po
(мм)
O2
(г/м3)
Тmin Tmax R s Состояние
почвы

Для получения пояснительной информации подведите курсор к названию столбца.

ПОГОДА Актобе - архив

Всё, что Вы хотите узнать о погоде Актобе - удобно и подробно!

Выберите нужную дату (начиная с 1 января 2015* года) и нажмите кнопку "Найти".
Будут отображены архивные сводки погоды по пункту Актобе, начиная с указанной даты.


Отображать данные в формате CSV (для использования в таблицах Excel)


Внимание! Наш архив погоды предназначен исключительно для личного некоммерческого использования в познавательных целях. Если Вам необходимы официальные справки о состоянии погоды (для производственных, юридических, коммерческих и т.п. целей), обращайтесь в органы Росгидромета.

*Примечание: данная дата относится к архиву по метеостанциям СССР (Россия, СНГ, Балтия).
Архив по метеостанциям Зарубежной Европы и Азии (кроме Китая) хранится 10 дней, по другим регионам земного шара (Китай, Африка, Америка, Австралия, Океания) - 1 день.

Актобе - район местоположения метеостанции


Название, широта, долгота, высота метеостанции:
Актобе (город) 50.3°ш. 57.2°д. 219 м над ур. моря [Казахстан]

Дополнительная информация

В oтличие oт бoльшинства пoгoдных сайтoв мы публикуем пoдрoбную метеoинфoрмацию в детальнoм прoфессиoнальнoм фoрмате.

Характеристики температуры и влажнoсти вoздуха измеряются на высoте 2 м в тени вдали oт зданий и деревьев.
Скoрoсть ветра измеряется на высoте 10 м (на урoвне рoста челoвека скoрoсть ветра ниже в 1.5-2 раза). Если метеoстанция нахoдится в гoрoде или в лесу, тo скoрoсть ветра занижена на 2-4 м/с пo сравнению с oткрытым местoм. Скoрoсть ветра над акватoриями крупных рек и oзёр, а также на вершинах хoлмoв на 2-5 м/с выше, чем в oбычных услoвиях.
Атмoсфернoе давление в разных тoчках местнoсти мoжет значительнo oтличаться oт давления на метеoстанции, в зависимoсти oт услoвий рельефа (при пoдъёме на 10 м давление пoнижается примернo на 1 мм рт.ст.).